Regional Weather Roundup
Issued by NWS

Home | Current Version | Previous Version | Text Only | Print | Product List | Glossary Off
Versions: 1 2 3 4 5 6 7 8 9 10 11 12 13 14 15 16 17 18 19 20 21 22 23 24 25 26 27 28 29 30 31 32 33 34 35 36 37 38 39 40 41 42 43 44 45 46 47 48 49 50

000
ASUS45 KCYS 240110
RWRWY

WYOMING REGIONAL WEATHER ROUNDUP
NATIONAL WEATHER SERVICE CHEYENNE WY
700 PM MDT MON MAY 23 2016

NOTE:  "FAIR" INDICATES FEW OR NO CLOUDS BELOW 12,000 FEET
WITH NO SIGNIFICANT WEATHER AND/OR OBSTRUCTIONS TO VISIBILITY.

WYZ001-240200-
YELLOWSTONE NATIONAL PARK

CITY           SKY/WX    TMP DP  RH WIND       PRES   REMARKS
LK YELLOWSTONE   N/A     42  26  53 VRB3      29.94S
W YELLOWSTONE  NOT AVBL

$$
WYZ002>013-054>058-071-098>099-240200-
NORTHERN WYOMING

CITY           SKY/WX    TMP DP  RH WIND       PRES   REMARKS
JACKSON        PTSUNNY   52  23  32 W12       29.90S
CODY           FAIR      55  27  33 W9        29.82R
GREYBULL       PTSUNNY   64  23  21 VRB3      29.78R
WORLAND        PTSUNNY   64  26  23 NW14G29   29.78R
SHERIDAN       PTSUNNY   59  38  45 N8        29.80R
BUFFALO        FAIR      57  34  41 N10       29.82R
GILLETTE       FAIR      62  29  28 N13       29.76R
HULETT         MOCLDY    68  28  22 NW8       29.77R
NEWCASTLE      FAIR      68  19  15 W14G21    29.78S

$$
WYZ014>020-022>026-101>103-240200-
CENTRAL WYOMING

CITY           SKY/WX    TMP DP  RH WIND       PRES   REMARKS
BIG PINEY      FAIR      53  28  38 NW15G24   29.94S
PINEDALE       FAIR      50  30  46 NW16      29.95R
DUBOIS         MOCLDY    48  21  34 W17G24    29.89S
LANDER         FAIR      60  23  24 W5        29.82R
RIVERTON       FAIR      61  21  21 W16       29.84R
CASPER         CLOUDY    56  29  35 W8        29.86R
DOUGLAS        FAIR      62  31  31 NW16      29.84R

$$
WYZ021-027>030-104>119-240200-
SOUTHERN WYOMING

CITY           SKY/WX    TMP DP  RH WIND       PRES   REMARKS
EVANSTON       FAIR      54  27  35 W8        29.93F
KEMMERER         N/A     52  23  32 W9G17     29.94S
FORT BRIDGER   CLOUDY    54  34  47 S9        29.96F
ROCK SPRINGS   FAIR      53  28  38 SW9       29.94S
DIXON          FAIR      58  29  33 W6        29.93S
RAWLINS        FAIR      54  29  38 W13       29.93S
SARATOGA       CLOUDY    57  25  28 CALM      29.94F
LARAMIE        FAIR      57  23  26 MISG      29.92R
CHEYENNE       FAIR      58  38  47 S13G21    29.90S
TORRINGTON     PTSUNNY   59  43  55 S14       29.83R
PINE BLUFFS    FAIR      59  39  47 S5        29.90R

$$



USA.gov is the U.S. government's official web portal to all federal, state and local government web resources and services.